{"data":{"norad_id":53403,"intl_designator":"2022-097R","name":"STARLINK-4507","alt_names":[],"object_type":"PAYLOAD","status":"ACTIVE","operator":null,"country":"US","launch_date":"2022-08-10","launch_site_code":"AFETR","launch_vehicle":null,"mission":null,"orbit_class":"UNKNOWN","rcs_meters":null,"size_class":null,"mass_kg":null,"dimensions":null,"purposes":["comms"],"wikipedia_slug":null,"has_3d_model":false,"image_url":null,"decayed_at":null,"tle_current":{"epoch":"2026-09-18T04:27:24.678720Z","epoch_age_seconds":275276,"freshness":"STALE","line1":"1 53403U 22097R   26261.18570230  .00000559  00000+0  29769-4 0  9993","line2":"2 53403  53.1622 329.6800 0001232  87.2132 272.9011 15.31699499227712","mean_motion":15.31699499,"eccentricity":0.0001232,"inclination_deg":53.1622,"raan_deg":329.68,"arg_perigee_deg":87.2132,"mean_anomaly_deg":272.9011,"bstar":2.9769e-5,"rev_number":22771,"period_min":94.013218711642,"perigee_km":469.89770685118,"apogee_km":471.58527051079,"semimajor_km":6848.878488681,"source":"CELESTRAK","updated_at":"2026-09-20T09:00:40.226075Z"}}}